When you browse on this site, cookies collect data to enhance your experience and personalize the content and advertising you see.
Visit our Privacy Policy to learn more. By continuing to use the site, you agree to this use of cookies and data.
  • In Latvia
  • List of Countries
  • For 7 days
  • Water Temperature
  • Weather Map
  • Weather Widgets
  • user-avatar
    Login

    Hourly Weather Nevedro

    Today, 21 February, Friday

    Time Temperature Precipitation Wind Pressure Humidity
    00:00 -1°C° 0 mm 2 mps 748 mmHg 93%
    01:00 -1°C° 0 mm 2 mps 748 mmHg 93%
    02:00 -1°C° 0 mm 2 mps 749 mmHg 94%
    03:00 -1°C° 0 mm 2 mps 748 mmHg 93%
    04:00 -1°C° 0 mm 2 mps 748 mmHg 91%
    05:00 -1°C° 0 mm 2 mps 747 mmHg 90%
    06:00 -1°C° 0 mm 2 mps 747 mmHg 88%
    07:00 -1°C° 0 mm 3 mps 747 mmHg 85%
    08:00 -1°C° 0 mm 3 mps 748 mmHg 83%
    15:00 +2°C° 0 mm 5 mps 747 mmHg 66%
    16:00 +1°C° 0 mm 4 mps 747 mmHg 69%
    17:00 0°C° 0 mm 4 mps 747 mmHg 73%
    18:00 0°C° 0 mm 4 mps 747 mmHg 74%
    19:00 0°C° 0 mm 4 mps 747 mmHg 76%
    20:00 -1°C° 0 mm 4 mps 748 mmHg 78%
    21:00 -1°C° 0 mm 4 mps 748 mmHg 79%
    22:00 -1°C° 0 mm 4 mps 748 mmHg 80%
    23:00 -1°C° 0 mm 4 mps 748 mmHg 80%

    Tomorrow, 22 February, Saturday

    Time Temperature Precipitation Wind Pressure Humidity
    00:00 -1°C° 0 mm 4 mps 748 mmHg 84%
    01:00 -1°C° 0 mm 4 mps 748 mmHg 87%
    02:00 -1°C° 0 mm 4 mps 748 mmHg 91%
    03:00 -1°C° 0 mm 4 mps 748 mmHg 91%
    04:00 -1°C° 0 mm 4 mps 748 mmHg 92%
    05:00 0°C° 0 mm 3 mps 748 mmHg 93%
    06:00 -1°C° 0 mm 4 mps 748 mmHg 92%
    07:00 -1°C° 0 mm 4 mps 748 mmHg 92%
    08:00 -1°C° 0 mm 5 mps 748 mmHg 92%
    09:00 -1°C° 0 mm 5 mps 748 mmHg 89%
    10:00 -1°C° 0 mm 5 mps 747 mmHg 87%
    11:00 -1°C° 0 mm 6 mps 747 mmHg 84%
    12:00 -1°C° 0 mm 6 mps 746 mmHg 81%
    13:00 +1°C° 0 mm 6 mps 745 mmHg 78%
    14:00 +1°C° 0 mm 6 mps 745 mmHg 75%
    15:00 0°C° 0 mm 7 mps 743 mmHg 74%
    16:00 +2°C° 0 mm 7 mps 742 mmHg 73%
    17:00 +2°C° 0 mm 7 mps 741 mmHg 72%
    18:00 0°C° 0.8 mm 8 mps 739 mmHg 79%
    19:00 0°C° 0.8 mm 9 mps 738 mmHg 86%
    20:00 -2°C° 0.8 mm 10 mps 737 mmHg 94%
    21:00 -1°C° 0.8 mm 9 mps 735 mmHg 93%
    22:00 -1°C° 0.8 mm 9 mps 734 mmHg 93%
    23:00 0°C° 0.8 mm 8 mps 733 mmHg 93%

    Day after tomorrow, 23 February, Sunday

    Time Temperature Precipitation Wind Pressure Humidity
    00:00 0°C° 0.8 mm 7 mps 732 mmHg 92%
    01:00 0°C° 0.8 mm 7 mps 732 mmHg 90%
    02:00 +1°C° 0.8 mm 6 mps 731 mmHg 89%
    03:00 +1°C° 0.1 mm 6 mps 731 mmHg 86%
    04:00 0°C° 0.1 mm 5 mps 731 mmHg 83%
    05:00 0°C° 0.1 mm 5 mps 731 mmHg 79%
    06:00 0°C° 0 mm 5 mps 731 mmHg 79%
    07:00 -1°C° 0 mm 5 mps 731 mmHg 79%
    08:00 -1°C° 0 mm 5 mps 731 mmHg 79%
    09:00 -1°C° 0 mm 5 mps 732 mmHg 78%
    10:00 0°C° 0 mm 5 mps 732 mmHg 77%
    11:00 -1°C° 0 mm 6 mps 732 mmHg 76%
    12:00 +1°C° 0.1 mm 6 mps 732 mmHg 73%
    13:00 +1°C° 0.1 mm 6 mps 732 mmHg 71%
    14:00 +1°C° 0.1 mm 6 mps 732 mmHg 69%
    15:00 +1°C° 0.5 mm 6 mps 732 mmHg 75%
    16:00 -1°C° 0.5 mm 6 mps 731 mmHg 81%
    17:00 -1°C° 0.5 mm 6 mps 731 mmHg 87%
    18:00 0°C° 0.1 mm 5 mps 731 mmHg 86%
    19:00 0°C° 0.1 mm 5 mps 731 mmHg 84%
    20:00 -1°C° 0.1 mm 5 mps 731 mmHg 83%
    21:00 -1°C° 0 mm 5 mps 731 mmHg 86%
    22:00 -1°C° 0 mm 5 mps 730 mmHg 89%
    23:00 -1°C° 0 mm 5 mps 730 mmHg 92%

    24 February, Monday

    Time Temperature Precipitation Wind Pressure Humidity
    00:00 -1°C° 0 mm 5 mps 730 mmHg 93%
    01:00 -1°C° 0 mm 5 mps 729 mmHg 93%
    02:00 -2°C° 0 mm 4 mps 729 mmHg 94%
    03:00 -2°C° 0.2 mm 4 mps 729 mmHg 94%
    04:00 -2°C° 0.2 mm 4 mps 728 mmHg 94%
    05:00 -2°C° 0.2 mm 4 mps 728 mmHg 94%
    06:00 -1°C° 0.3 mm 4 mps 729 mmHg 94%
    07:00 -1°C° 0.3 mm 5 mps 730 mmHg 95%
    08:00 -1°C° 0.3 mm 5 mps 730 mmHg 95%
    09:00 -1°C° 0.1 mm 5 mps 731 mmHg 85%
    10:00 -1°C° 0.1 mm 6 mps 732 mmHg 75%
    11:00 -1°C° 0.1 mm 6 mps 733 mmHg 65%
    12:00 -1°C° 0 mm 6 mps 734 mmHg 64%
    13:00 -1°C° 0 mm 7 mps 734 mmHg 63%
    14:00 -1°C° 0 mm 7 mps 735 mmHg 61%
    15:00 -2°C° 0 mm 6 mps 736 mmHg 62%
    16:00 -2°C° 0 mm 6 mps 736 mmHg 62%
    17:00 -1°C° 0 mm 5 mps 737 mmHg 62%
    18:00 -2°C° 0 mm 5 mps 738 mmHg 62%
    19:00 -2°C° 0 mm 5 mps 738 mmHg 63%
    20:00 -4°C° 0 mm 5 mps 739 mmHg 64%
    21:00 -4°C° 0 mm 5 mps 740 mmHg 65%
    22:00 -4°C° 0 mm 5 mps 740 mmHg 67%
    23:00 -4°C° 0 mm 4 mps 741 mmHg 68%

    25 February, Tuesday

    Time Temperature Precipitation Wind Pressure Humidity
    00:00 -4°C° 0 mm 4 mps 741 mmHg 70%
    01:00 -4°C° 0 mm 3 mps 741 mmHg 72%
    02:00 -4°C° 0 mm 3 mps 742 mmHg 74%
    03:00 -4°C° 0 mm 3 mps 742 mmHg 75%
    04:00 -3°C° 0 mm 2 mps 741 mmHg 77%
    05:00 -3°C° 0 mm 2 mps 741 mmHg 78%
    06:00 -3°C° 0 mm 2 mps 741 mmHg 76%
    07:00 -3°C° 0 mm 2 mps 741 mmHg 74%
    08:00 -4°C° 0 mm 3 mps 740 mmHg 72%
    09:00 -1°C° 0 mm 3 mps 740 mmHg 65%
    10:00 -1°C° 0 mm 4 mps 739 mmHg 57%
    11:00 0°C° 0 mm 4 mps 739 mmHg 50%
    12:00 0°C° 0 mm 5 mps 738 mmHg 51%
    13:00 0°C° 0 mm 5 mps 737 mmHg 51%
    14:00 -1°C° 0 mm 6 mps 736 mmHg 52%
    15:00 -2°C° 0.4 mm 6 mps 735 mmHg 66%
    16:00 -2°C° 0.4 mm 6 mps 734 mmHg 81%
    17:00 -3°C° 0.4 mm 6 mps 733 mmHg 95%
    18:00 -2°C° 0.6 mm 5 mps 733 mmHg 95%
    19:00 -1°C° 0.6 mm 5 mps 732 mmHg 95%
    20:00 0°C° 0.6 mm 5 mps 732 mmHg 95%
    21:00 0°C° 0.1 mm 4 mps 732 mmHg 94%
    22:00 -1°C° 0.1 mm 4 mps 732 mmHg 92%
    23:00 -1°C° 0.1 mm 4 mps 732 mmHg 91%

    26 February, Wednesday

    Time Temperature Precipitation Wind Pressure Humidity
    00:00 -1°C° 0 mm 4 mps 731 mmHg 91%
    01:00 -1°C° 0 mm 3 mps 731 mmHg 91%
    02:00 -1°C° 0 mm 3 mps 731 mmHg 91%
    03:00 -1°C° 0 mm 3 mps 731 mmHg 92%
    04:00 -1°C° 0 mm 3 mps 731 mmHg 93%
    05:00 -2°C° 0 mm 3 mps 731 mmHg 93%
    06:00 -1°C° 0 mm 3 mps 731 mmHg 92%
    07:00 -1°C° 0 mm 3 mps 730 mmHg 91%
    08:00 -1°C° 0 mm 2 mps 730 mmHg 90%
    09:00 -1°C° 0.1 mm 2 mps 730 mmHg 91%
    10:00 0°C° 0.1 mm 3 mps 730 mmHg 92%
    11:00 0°C° 0.1 mm 3 mps 730 mmHg 93%
    12:00 +1°C° 0.1 mm 3 mps 730 mmHg 88%
    13:00 0°C° 0.1 mm 4 mps 730 mmHg 83%
    14:00 0°C° 0.1 mm 4 mps 730 mmHg 78%
    15:00 0°C° 0 mm 4 mps 730 mmHg 79%
    16:00 0°C° 0 mm 3 mps 730 mmHg 79%
    17:00 0°C° 0 mm 3 mps 730 mmHg 79%
    18:00 +1°C° 0 mm 2 mps 730 mmHg 80%
    19:00 +1°C° 0 mm 2 mps 730 mmHg 80%
    20:00 +1°C° 0 mm 2 mps 730 mmHg 81%
    21:00 -1°C° 0 mm 2 mps 730 mmHg 83%
    22:00 -1°C° 0 mm 2 mps 730 mmHg 85%
    23:00 -1°C° 0 mm 2 mps 730 mmHg 87%
    Show more